This is the latest recevied weather packets stored in our database for station/object DL9LAF-4. If no packets are shown the sender has not sent any weather packets the latest 10 day(s).
| Time | Temp. | Humidity | Pressure | Rain* | Wind** | Luminosity | Snow |
|---|---|---|---|---|---|---|---|
| 1777628153 | 17.78° C | 54% | 1006.7 hPa | 0 mm | - | - | - |
| 1777627553 | 17.78° C | 55% | 1006.7 hPa | 0 mm | - | - | - |
| 1777626953 | 17.22° C | 56% | 1006.7 hPa | 0 mm | - | - | - |
| 1777626353 | 16.67° C | 56% | 1006.9 hPa | 0 mm | - | - | - |
| 1777625754 | 16.67° C | 57% | 1006.9 hPa | 0 mm | - | - | - |
| 1777625153 | 16.11° C | 57% | 1007.2 hPa | 0 mm | - | - | - |
| 1777624553 | 16.11° C | 59% | 1007.2 hPa | 0 mm | - | - | - |
| 1777623953 | 15.56° C | 60% | 1007 hPa | 0 mm | - | - | - |
| 1777623353 | 15° C | 60% | 1007.2 hPa | 0 mm | - | - | - |
| 1777622753 | 15° C | 61% | 1007.2 hPa | 0 mm | - | - | - |
| 1777622153 | 14.44° C | 64% | 1007.2 hPa | 0 mm | - | - | - |
| 1777621554 | 13.89° C | 65% | 1007.2 hPa | 0 mm | - | - | - |
| 1777620953 | 13.33° C | 66% | 1007 hPa | 0 mm | - | - | - |
| 1777620353 | 13.33° C | 69% | 1007.2 hPa | 0 mm | - | - | - |
| 1777619753 | 12.78° C | 72% | 1007.2 hPa | 0 mm | - | - | - |
| 1777619153 | 12.22° C | 73% | 1007.2 hPa | 0 mm | - | - | - |
| 1777618553 | 11.67° C | 74% | 1007.5 hPa | 0 mm | - | - | - |
| 1777617953 | 11.11° C | 75% | 1007.5 hPa | 0 mm | - | - | - |
| 1777617353 | 10.56° C | 76% | 1007.5 hPa | 0 mm | - | - | - |
| 1777616753 | 10° C | 76% | 1007.2 hPa | 0 mm | - | - | - |
| 1777616153 | 9.44° C | 76% | 1007.2 hPa | 0 mm | - | - | - |
| 1777615553 | 8.89° C | 76% | 1007.2 hPa | 0 mm | - | - | - |
| 1777614953 | 8.33° C | 76% | 1007.4 hPa | 0 mm | - | - | - |
| 1777614353 | 7.78° C | 76% | 1007.2 hPa | 0 mm | - | - | - |
| 1777613753 | 7.22° C | 75% | 1007.2 hPa | 0 mm | - | - | - |
* Rain latest hour (hover to see other rain measurements)
** Current wind speed in m/s (hover to see current wind gust speed)